Location: Brompton
(51.4000°N, 0.5333°E)
Time: 22:22:13
(UTC+00:00)

Daily predictions for brighter satellites

Satellite Brightness Start Highest point End
(mag) Time Altitude Azimuth Time Altitude Azimuth Time Altitude Azimuth
Cosmos 676 Rocket 4.4 17:52:43 10° SSW 17:57:53 72° WNW 18:03:06 10° NNE
Cosmos 540 Rocket 4.2 17:55:18 10° NNW 18:00:19 58° WSW 18:05:19 10° S
Cosmos 1674 Rocket 3.7 17:57:35 10° N 18:01:55 53° ENE 18:06:15 10° SSE
Cosmos 1766 4.2 17:58:54 10° SSE 18:02:16 28° E 18:05:40 10° NNE
Meteor 2-10 4.4 17:58:23 10° S 18:03:46 50° E 18:09:01 10° NNE
ARGOS 4.4 17:59:16 10° S 18:04:26 48° W 18:09:38 10° NNW
ATLAS 2AS CENTAUR R/B 4.1 17:58:55 10° WNW 18:05:40 34° NNW 18:12:05 10° NE
YAOGAN 1 2.9 18:03:25 10° SE 18:07:32 44° ENE 18:11:40 10° N
Cosmos 968 Rocket 4.5 18:04:34 10° SSE 18:08:45 25° E 18:12:55 10° NE
Okean O Rocket 2.0 18:07:18 10° SE 18:11:24 41° ENE 18:15:33 10° N
Cosmos 2084 3.4 18:08:31 10° SW 18:12:20 73° NW 18:16:11 10° NE
SKYMED 2 3.5 18:08:55 10° NNE 18:13:18 73° ESE 18:17:37 10° S
SAR-Lupe-3 4.5 18:09:49 10° SSE 18:13:22 81° ENE 18:16:58 10° NNW
Lacrosse 4 Rocket 3.3 18:12:54 10° ESE 18:13:25 10° ESE 18:13:55 10° E
Meteor 2-5 Rocket 4.2 18:08:55 10° N 18:14:02 37° ENE 18:19:07 10° SE
Nadezhda 4 Rocket 4.3 18:10:19 10° SSE 18:16:16 46° E 18:22:14 10° NNE
Cosmos 2285 Rocket 4.0 18:14:06 10° NNW 18:20:28 70° ENE 18:26:50 10° SSE
PSLV R/B 3.8 18:19:58 10° S 18:23:38 77° WSW 18:27:19 10° NNW
Cosmos 1726 2.1 18:20:43 10° S 18:24:18 58° E 18:27:55 10° NNE
USA 186 3.4 18:22:41 13° ESE 18:24:30 19° ENE 18:26:56 10° NNE
Cosmos 2322 Rocket 3.3 18:20:21 10° SSE 18:24:33 22° E 18:28:47 10° NE
Cosmos 841 Rocket 4.4 18:22:04 10° NNW 18:27:07 53° WSW 18:32:06 10° S
Cosmos 1378 Rocket 3.6 18:24:06 10° N 18:28:31 87° WSW 18:32:52 10° S
Cosmos 1470 3.8 18:26:03 10° SE 18:29:07 23° E 18:32:11 10° NE
Cosmos 1975 Rocket 4.0 18:25:42 10° N 18:29:32 28° ENE 18:33:09 11° SE
CZ-4B R/B 3.2 18:24:31 10° SSE 18:29:55 82° ENE 18:35:29 10° NNW
Cosmos 1980 Rocket 2.3 18:24:32 10° SSW 18:30:11 85° WNW 18:35:51 10° NNE
ARGOS Delta rocket 4.0 18:25:15 10° NNE 18:30:31 63° E 18:35:29 10° S
DMSP B5D2-2 4.2 18:26:00 10° NNE 18:31:19 83° WNW 18:36:35 10° SSW
Cosmos 2292 Rocket 4.0 18:34:35 10° SSE 18:39:10 39° E 18:42:46 10° NNE
Meteor 2-14 Rocket 4.4 18:35:01 10° S 18:41:05 82° E 18:47:10 10° NNE
Cosmos 1733 Rocket 3.8 18:38:56 10° SSW 18:43:19 58° WNW 18:47:45 10° N
Cosmos 1850 Rocket 4.3 18:38:28 10° SSW 18:43:41 73° WNW 18:49:00 10° NNE
USA 215 3.3 18:37:44 10° ENE 18:44:19 87° SSE 18:50:53 10° WSW
Cosmos 2369 4.2 18:42:16 10° SW 18:47:56 63° NW 18:53:38 10° NNE
COBE Rocket 4.1 18:43:19 10° S 18:48:08 72° WSW 18:52:52 10° NNW
Cosmos 1844 Rocket 2.9 18:43:08 10° NNW 18:48:41 52° NE 18:52:59 17° SE
Cosmos 2278 3.7 18:47:54 10° SSW 18:53:36 85° ESE 18:59:19 10° NNE
Cosmos 1943 Rocket 4.4 18:52:31 10° N 18:53:45 11° NNE 18:54:58 10° NNE
Cosmos 1570 Rocket 4.0 18:48:47 10° NNW 18:54:05 84° WSW 18:59:20 10° SSE
SL-16 R/B 2.4 18:49:05 10° S 18:54:27 46° ESE 18:59:52 10° NE
Landsat 5 4.3 18:50:59 10° NNE 18:55:00 31° E 18:58:57 10° SSE
Cosmos 1092 Rocket 4.1 18:51:40 10° SSE 18:57:44 53° E 19:03:46 10° NNE
DMSP B5D1-3 4.4 18:55:22 10° NNE 19:00:29 70° ESE 19:05:35 10° S
COSMO-SKYMED 1 4.0 18:57:09 10° N 19:01:15 41° WNW 19:05:19 10° SW
Resurs 01 Rocket 3.0 19:01:19 21° ENE 19:01:48 21° ENE 19:05:07 10° NNE
Cosmos 2278 Rocket 3.9 18:59:27 10° NNW 19:03:19 18° NNE 19:05:41 15° ENE
Meteor 2-21 Rocket 4.4 18:57:44 10° S 19:03:47 85° E 19:09:53 10° NNE
SJ-6B 2.9 19:02:07 26° SE 19:03:54 47° ENE 19:07:35 10° N
HJ-1C 4.3 19:02:12 10° S 19:05:12 44° W 19:08:13 10° NNW
Gbstr 26 Del rocket 4.5 18:58:54 10° WSW 19:06:30 77° SSE 19:12:38 19° ENE
Cosmos 1437 Rocket 2.5 19:02:53 10° S 19:06:37 78° ESE 19:10:23 10° NNE
H-2A R/B 3.5 19:07:12 24° ENE 19:07:12 24° ENE 19:10:15 10° N
Cosmos 2263 Rocket 3.9 19:02:33 10° NW 19:07:38 34° WSW 19:12:40 10° S
Meteor 1-24 Rocket 3.5 19:04:14 10° N 19:09:34 81° ENE 19:14:57 10° SSE
Resurs 1-3 3.9 19:11:26 31° ESE 19:13:04 45° ENE 19:17:15 10° N
SL-4 R/B 3.8 19:10:58 10° W 19:14:49 29° SW 19:17:51 15° SSE
Cosmos 921 Rocket 4.5 19:11:47 10° N 19:15:21 22° NE 19:15:35 22° ENE
STPSAT 2 (USA 217) 4.5 19:11:17 10° SSW 19:15:50 79° ESE 19:20:23 10° NNE
MetOp-A 4.2 19:17:20 31° ENE 19:17:20 31° ENE 19:20:51 10° N
Meteor 2-16 Rocket 4.4 19:11:37 10° S 19:17:45 89° W 19:23:57 10° N
Feng Yun 1-1 Rocket 4.5 19:12:29 10° S 19:17:56 68° WSW 19:23:20 10° NNW
Cosmos 2084 Rocket 3.5 19:14:14 10° NW 19:18:02 62° SW 19:19:51 29° SSE
USA 267 4.5 19:15:33 10° SSE 19:21:31 36° SW 19:27:30 10° WNW
Cosmos 2208 Rocket 4.4 19:17:23 10° NNW 19:22:43 65° WSW 19:28:05 10° S
Okean-O 2.5 19:20:30 28° SSE 19:22:43 67° ENE 19:27:09 10° N
Cosmos 1844 3.6 19:17:42 10° NNW 19:23:17 75° ENE 19:26:12 29° SE
Cosmos 1486 Rocket 4.4 19:19:02 10° S 19:23:59 41° ESE 19:28:59 10° NE
CZ-4 R/B 2.5 19:20:04 10° S 19:24:06 46° W 19:28:09 10° NNW
OBJECT-B 0.6 19:24:56 59° WNW 19:24:56 59° WNW 19:27:11 10° NNW
IGS 5A 3.3 19:24:37 30° SSE 19:26:37 78° ENE 19:30:45 10° N
DNEPR-1 R/B 4.2 19:23:20 10° SSW 19:27:52 45° ESE 19:30:36 26° ENE
S3M 4.4 19:22:43 10° N 19:28:33 39° ENE 19:30:09 34° ESE
Helios 1B 4.4 19:24:37 10° NNE 19:28:59 85° E 19:33:19 10° SSW
Meteor 1-22 Rocket 4.1 19:23:38 10° S 19:29:05 86° ESE 19:34:48 10° NNE
Cosmos 773 Rocket 4.4 19:24:39 10° NNW 19:29:46 45° ENE 19:31:01 38° E
Cosmos 1300 Rocket 3.5 19:30:15 39° SSE 19:31:29 55° E 19:35:46 10° NNE
Cosmos 1908 Rocket 4.4 19:27:31 10° SSW 19:31:44 51° WNW 19:35:59 10° N
CSL-04 Debris 4.2 19:28:02 13° SSE 19:32:55 84° WSW 19:38:22 10° NNW
Cosmos 1428 Rocket 4.4 19:27:06 10° S 19:33:19 89° E 19:39:37 10° N
Cosmos 1627 Rocket 4.4 19:30:40 10° S 19:36:46 86° E 19:42:57 10° N
USA 81 4.1 19:32:55 10° N 19:38:13 82° W 19:43:22 11° S
Cosmos 2360 Rocket 2.3 19:33:35 10° S 19:38:59 49° ESE 19:44:24 10° NE
Cosmos 1782 Rocket 3.6 19:35:31 10° SSW 19:39:51 75° W 19:44:16 10° N
Cosmos 1025 Rocket 3.3 19:38:00 10° NNW 19:42:18 67° W 19:44:51 24° S
Cosmos 158 Rocket 4.3 19:40:04 10° NNW 19:44:42 41° ENE 19:44:48 41° ENE
Okean O Rocket 3.7 19:44:12 10° SSW 19:47:53 26° W 19:51:37 10° NW
Cosmos 1417 Rocket 4.4 19:43:04 10° N 19:49:10 63° ENE 19:51:03 43° SE
Cosmos 968 Rocket 4.0 19:44:58 10° SW 19:50:09 59° WNW 19:55:21 10° NNE
Lacrosse 4 Rocket 1.7 19:47:07 10° SSW 19:50:17 52° SSW 19:50:17 52° SSW
Cosmos 2026 Rocket 4.0 19:47:18 10° SSW 19:53:21 76° WNW 19:59:28 10° N
USA 186 3.3 19:55:51 32° SW 19:56:34 37° W 19:59:44 10° NNW
ATLAS 2AS CENTAUR R/B 3.8 19:51:55 10° NW 19:58:34 35° NNE 20:01:35 25° ENE
CSL-04 Rocket 4.1 19:55:05 19° S 19:58:55 60° WSW 20:04:19 10° NNW
MOS 1 4.2 20:01:33 58° ESE 20:02:31 69° ENE 20:08:11 10° NNW
Cosmos 1553 Rocket 4.0 19:56:36 10° N 20:02:59 84° W 20:06:33 29° S
Cosmos 1470 4.4 20:01:22 10° SW 20:04:53 34° WNW 20:08:26 10° N
Landsat 7 4.0 20:04:06 46° SSW 20:05:22 68° WSW 20:10:06 10° NNW
deb Chang Zheng 4 3.5 20:05:56 73° NW 20:05:56 73° NW 20:09:45 10° NNW
Cosmos 1536 Rocket 4.0 20:01:17 10° N 20:04:43 51° NNE 20:04:43 51° NNE
Cosmos 1975 Rocket 4.4 20:03:24 10° NNW 20:07:29 37° W 20:10:19 17° SSW
Cosmos 2322 Rocket 2.3 20:02:17 10° SW 20:08:00 77° WNW 20:13:46 10° NNE
SPOT 1/Viking Rocket 3.4 20:07:54 73° E 20:08:06 74° ENE 20:13:15 10° NNW
Cosmos 2237 4.3 20:03:07 10° SW 20:08:50 75° WNW 20:14:34 10° NNE
NOSS 3-4 (A) 3.8 20:03:34 10° NW 20:10:16 69° NE 20:12:04 52° E
NOSS 3-4 (C) 3.8 20:03:40 10° NW 20:10:22 68° NE 20:12:10 52° E
SPOT 3 Rocket 4.4 20:15:04 36° NE 20:15:04 36° NE 20:18:50 10° N
Cosmos 1758 4.2 20:15:55 45° NNW 20:15:55 45° NNW 20:18:58 10° N
Cosmos 1980 Rocket 4.4 20:10:36 10° W 20:15:01 23° NW 20:19:27 10° NNE
Ariane Rocket 3.4 20:16:26 51° NE 20:16:26 51° NE 20:20:43 10° N
NOSS 3-3 (A) 4.2 20:16:00 10° SSW 20:30:26 - NE 20:20:03 48° S
NOSS 3-3 (C) 4.3 20:16:06 10° SSW 20:30:31 - NE 20:19:58 45° S
Aureole 1 Rocket 3.8 20:18:50 10° SSW 20:26:07 78° ESE 20:31:48 10° NNE
USA 215 3.7 20:24:15 33° NE 20:27:11 58° N 20:33:34 10° W
USA 281 3.7 20:27:40 43° ENE 20:27:59 43° NE 20:34:07 10° NNW
Meteor 1-16 Rocket 4.2 20:30:32 77° NE 20:30:32 77° NE 20:36:06 10° NNE
Cosmos 1844 Rocket 4.1 20:27:21 10° NW 20:32:24 34° WSW 20:34:40 25° SSW
Resurs 01 Rocket 2.5 20:38:52 47° NW 20:38:52 47° NW 20:42:20 10° NNW
Cosmos 2315 Rocket 4.0 20:31:52 10° N 20:37:56 71° NE 20:37:56 71° NE
SL-16 R/B 3.4 20:33:22 10° WSW 20:38:41 40° NW 20:44:02 10° NNE
Cosmos 1943 Rocket 3.7 20:35:10 10° NNW 20:38:59 24° NNE 20:38:59 24° NNE
Terra 3.7 20:42:42 22° NNE 20:42:42 22° NNE 20:44:42 10° N
H-2A R/B 4.2 20:43:39 29° WNW 20:43:39 29° WNW 20:46:02 10° NNW
Cosmos 2278 Rocket 2.8 20:43:00 10° NNW 20:47:32 50° N 20:47:32 50° N
MetOp-B 4.5 20:49:52 62° NNW 20:49:52 62° NNW 20:54:20 10° NNW
Gbstr 26 Del rocket 4.4 20:46:10 10° W 20:54:11 87° N 20:55:06 73° E
Cosmos 2369 Rocket 4.2 20:55:04 10° NNW 20:58:48 18° NNE 20:58:48 18° NNE
Cosmos 2266 Rocket 4.3 21:11:31 66° WNW 21:11:31 66° WNW 21:17:46 10° N
Cosmos 1655 Rocket 4.3 21:13:41 64° NW 21:13:41 64° NW 21:19:21 10° N
Cosmos 2333 Rocket 4.0 21:18:31 23° NNE 21:18:31 23° NNE 21:20:35 10° NNE
Cosmos 2360 Rocket 3.5 21:17:55 10° WSW 21:23:09 38° NW 21:28:24 10° NNE
ATLAS 2AS CENTAUR R/B 3.3 21:43:27 10° NW 21:49:00 53° NNW 21:49:00 53° NNW
Cosmos 2322 Rocket 4.4 21:48:38 10° W 21:53:01 22° NW 21:57:24 10° NNE
USA 215 4.1 22:11:37 45° NW 22:11:37 45° NW 22:16:12 10° WNW
USA 281 4.3 22:14:33 39° WNW 22:14:33 39° WNW 22:18:50 10° NNW
Cosmos 1943 Rocket 4.3 22:18:34 10° NNW 22:20:29 22° NNW 22:20:29 22° NNW
Cosmos 2278 Rocket 4.5 22:27:37 10° NW 22:29:22 18° WNW 22:29:22 18° WNW
Cosmos 2369 Rocket 4.4 22:38:36 10° NNW 22:40:34 22° NNW 22:40:34 22° NNW
Cosmos 2219 Rocket 4.5 22:46:54 19° N 22:46:54 19° N 22:49:12 10° NNE
